Temp
63 63 63 64 64 65 65 65 65 65 65 65 65 65 65 65 66 77 77 78 77 71 70 77 78 77 77 73 72 71 69 65 65 62 67 68 67 66 65 66 64 67 66 65 70
62 62 63 63 64 64 64 64 64 64 64 65 65 64 64 65 77 77 77 74 72 71 76 77 75 76 76 71 72 72 67 67 70 70 68 68 68 69 66 65 64 65 66 61 65
61 61 62 62 63 63 64 64 63 64 64 64 64 64 64 69 76 78 73 73 72 72 76 76 76 76 71 71 69 67 67 68 69 70 69 68 66 69 67 65 71 71 72 62 62
60 60 61 61 62 63 63 63 63 63 64 64 64 64 64 78 68 76 70 71 70 76 76 75 75 72 69 68 67 65 67 67 68 66 65 65 66 64 66 73 70 72 70 64 62
59 59 59 60 61 62 63 63 63 63 63 63 63 63 72 74 75 75 69 71 76 76 74 74 73 70 68 68 65 64 66 66 67 64 65 62 64 66 65 72 72 65 63 63 63
59 58 58 59 60 61 62 63 63 63 63 63 63 64 76 68 73 75 73 73 74 75 72 73 73 71 68 66 66 66 64 66 65 64 64 62 65 60 69 64 66 63 64 65 64
59 59 58 59 60 61 61 62 62 62 62 63 64 70 73 75 75 75 73 70 70 73 71 69 71 70 68 63 63 62 62 66 64 63 63 61 60 60 73 61 64 62 64 63 63
59 59 59 59 59 60 61 61 61 62 62 64 64 73 72 71 76 73 73 70 71 71 69 68 70 67 66 63 62 60 59 59 64 61 60 61 59 70 69 63 65 67 65 61 61
59 58 59 59 59 59 60 61 61 62 64 64 71 73 70 69 69 71 73 70 68 68 68 68 69 64 63 63 62 59 60 58 59 62 60 60 60 65 65 61 63 68 67 62 61
59 59 59 59 59 59 60 61 63 63 67 69 72 70 69 67 67 68 70 70 67 66 66 66 66 64 62 63 56 61 57 59 57 61 57 57 57 65 69 63 64 69 70 64 59
60 60 59 59 59 60 61 70 74 70 70 70 69 68 66 66 67 65 68 68 68 67 63 61 62 60 67 66 66 61 58 58 64 57 56 57 57 62 66 65 65 67 69 64 61
60 60 60 59 60 60 61 66 61 59 63 64 62 62 64 66 63 62 68 66 63 61 59 58 57 67 60 59 57 56 57 58 60 53 51 54 52 58 61 63 65 67 69 67 62
59 60 60 59 59 61 58 57 55 57 59 61 62 62 62 64 62 62 65 62 61 56 57 59 64 54 56 54 53 55 55 58 54 52 51 49 52 53 59 58 60 63 65 66 62
59 59 59 60 58 57 58 54 56 56 56 56 58 60 58 61 58 58 61 62 58 57 54 57 59 56 54 55 56 52 57 53 50 49 49 50 45 57 59 57 60 66 64 60 59
59 59 59 60 56 56 54 54 55 59 40 57 56 61 57 57 55 54 59 60 57 54 55 58 50 50 51 55 55 54 50 49 48 48 42 50 42 56 49 52 60 67 67 62 61
58 58 57 57 57 56 54 55 58 53 38 53 55 52 52 53 53 54 56 60 57 54 52 55 53 54 56 48 50 48 49 46 44 44 38 51 46 55 55 57 61 66 65 62 59
58 58 57 58 55 54 54 58 50 43 51 52 53 50 51 50 50 51 50 49 50 47 48 51 51 51 51 50 49 49 50 45 42 37 41 45 41 52 59 61 61 67 68 61 59
58 57 57 58 54 55 56 53 39 52 52 53 51 48 50 51 51 48 47 49 50 50 48 50 49 46 52 56 55 47 52 44 34 40 44 36 38 55 59 63 65 58 59 55 57
58 56 53 56 53 55 50 43 49 55 55 50 48 46 49 49 52 48 49 53 54 52 51 48 50 46 46 49 53 44 43 50 41 29 34 49 57 55 51 52 53 55 56 57 56
54 51 51 55 55 53 44 46 55 58 52 53 51 54 52 54 46 48 50 54 55 52 60 55 46 46 43 48 46 45 49 40 43 33 34 46 49 51 54 54 53 52 55 59 58
54 47 51 53 55 44 38 45 53 56 56 54 55 55 54 55 51 51 53 56 55 51 53 54 49 45 44 43 46 41 43 42 43 40 38 37 46 56 55 57 55 57 60 61 59
51 43 49 52 41 41 37 48 47 50 51 54 53 55 56 54 50 50 51 56 58 51 45 51 47 45 49 44 44 49 49 48 41 38 40 42 45 57 57 59 57 59 57 59 58
47 45 49 51 37 36 42 43 44 48 50 51 51 52 54 52 44 51 55 57 53 51 48 47 40 37 44 40 40 42 44 46 49 46 40 36 42 63 64 59 56 57 58 56 56
48 39 41 43 45 43 41 41 41 45 46 46 44 46 42 44 49 49 48 49 49 50 45 49 40 43 41 48 45 41 43 43 45 39 41 42 47 55 59 59 62 60 53 56 57
48 41 41 33 36 40 43 42 41 40 46 47 43 45 44 41 45 44 48 51 44 44 46 47 37 41 44 47 47 46 46 45 39 43 41 47 48 54 58 59 61 63 62 60 60
45 40 41 41 42 39 39 39 39 44 46 43 41 46 46 41 43 43 46 45 44 40 44 41 36 39 35 42 41 39 44 46 45 45 46 46 44 56 59 61 59 59 59 57 58
48 49 43 39 37 36 36 37 41 44 47 49 48 44 43 44 47 51 52 49 44 41 39 37 34 32 29 37 37 31 35 39 43 47 48 41 50 57 55 55 55 57 57 54 55
MSLP
1021.24 1020.93 1020.65 1020.37 1020.11 1019.75 1019.33 1018.87 1018.41 1018.21 1017.99 1017.68 1017.47 1017.30 1017.04 1016.80 1016.71 1016.58 1016.01 1015.87 1015.87 1016.13 1016.28 1015.91 1015.63 1015.57 1015.54 1015.45 1015.54 1015.24 1014.09 1013.21 1013.27 1013.76 1013.70 1014.80 1015.01 1015.84 1016.42 1016.46 1016.98 1017.08 1017.27 1018.13 1018.52
1021.57 1021.27 1020.87 1020.53 1020.24 1019.96 1019.61 1019.20 1018.73 1018.15 1017.88 1017.66 1017.38 1017.14 1016.97 1016.81 1016.48 1015.97 1015.65 1015.76 1015.87 1016.01 1015.95 1015.55 1015.32 1015.35 1015.07 1015.32 1015.44 1014.89 1014.23 1013.53 1013.77 1013.90 1014.10 1014.69 1015.06 1015.21 1015.88 1015.83 1016.08 1016.54 1017.32 1018.46 1018.94
1021.74 1021.48 1021.19 1020.78 1020.44 1020.04 1019.70 1019.36 1018.90 1018.45 1017.91 1017.60 1017.29 1017.02 1016.84 1016.55 1016.27 1015.23 1015.49 1015.71 1015.85 1016.03 1015.95 1015.75 1015.43 1015.15 1014.92 1015.14 1015.22 1015.09 1014.28 1014.25 1014.15 1014.52 1014.78 1014.87 1015.10 1015.30 1015.16 1014.65 1014.34 1014.58 1015.60 1017.67 1018.42
1021.92 1021.59 1021.23 1020.87 1020.46 1020.13 1019.73 1019.38 1019.01 1018.56 1018.00 1017.58 1017.29 1016.98 1016.77 1016.33 1015.94 1015.12 1015.35 1015.47 1015.57 1015.60 1015.73 1015.69 1015.31 1014.97 1014.91 1014.97 1015.24 1015.03 1014.69 1014.70 1014.60 1014.93 1015.17 1015.06 1015.14 1014.91 1014.59 1013.26 1014.19 1014.65 1015.37 1016.62 1017.33
1022.06 1021.71 1021.29 1020.92 1020.47 1020.00 1019.63 1019.23 1018.85 1018.45 1018.04 1017.53 1017.20 1016.95 1016.85 1016.32 1015.20 1015.10 1015.31 1015.44 1015.46 1015.52 1015.41 1015.31 1015.13 1015.06 1014.83 1015.04 1015.36 1015.08 1014.68 1014.85 1014.85 1015.09 1015.10 1015.29 1014.80 1014.56 1013.58 1013.45 1014.09 1015.07 1015.73 1016.14 1016.66
1022.09 1021.82 1021.42 1020.90 1020.55 1020.02 1019.40 1018.89 1018.53 1018.15 1017.70 1017.36 1017.13 1016.92 1016.65 1016.22 1015.20 1015.20 1015.38 1015.57 1015.62 1015.42 1015.54 1015.40 1015.12 1015.29 1015.19 1015.25 1015.33 1015.06 1014.99 1014.71 1014.77 1014.88 1014.93 1014.84 1014.28 1014.80 1012.68 1013.42 1013.84 1014.59 1014.90 1015.50 1015.88
1021.86 1021.73 1021.41 1021.01 1020.49 1020.01 1019.33 1018.59 1018.12 1017.76 1017.29 1017.00 1016.90 1016.75 1016.41 1015.46 1015.14 1015.34 1015.50 1015.92 1016.02 1015.66 1015.56 1015.90 1015.77 1015.55 1015.52 1015.64 1015.76 1015.46 1014.92 1014.33 1014.25 1014.61 1014.71 1014.84 1013.92 1012.74 1012.01 1013.39 1013.47 1013.83 1014.15 1014.70 1015.19
1021.72 1021.51 1021.30 1020.88 1020.41 1019.82 1019.09 1018.24 1017.66 1017.29 1016.88 1016.69 1016.64 1016.44 1015.70 1015.45 1015.40 1015.49 1015.71 1016.07 1016.31 1016.24 1016.25 1016.38 1016.16 1016.05 1015.88 1016.08 1015.63 1015.27 1014.99 1013.83 1013.61 1014.30 1014.71 1014.79 1011.81 1011.39 1011.82 1012.58 1012.38 1012.57 1013.12 1013.78 1014.30
1021.55 1021.38 1021.07 1020.68 1020.21 1019.67 1018.87 1017.73 1017.21 1016.93 1016.70 1016.66 1016.55 1016.14 1015.55 1015.65 1015.61 1015.64 1015.70 1015.80 1016.28 1016.57 1016.64 1016.56 1016.26 1016.09 1016.13 1015.35 1014.70 1014.41 1013.32 1013.26 1013.39 1013.77 1014.32 1014.36 1011.95 1011.42 1011.71 1012.01 1011.40 1011.29 1011.84 1012.46 1013.18
1021.40 1021.31 1020.99 1020.55 1019.96 1019.39 1018.50 1017.20 1016.59 1016.78 1016.64 1016.50 1016.24 1016.49 1015.52 1015.31 1015.48 1015.69 1015.83 1015.87 1016.01 1016.38 1016.42 1016.28 1016.05 1015.63 1015.30 1014.57 1013.11 1012.54 1012.74 1012.68 1012.89 1013.50 1014.11 1013.65 1012.12 1010.93 1010.48 1011.10 1010.04 1009.45 1010.12 1011.11 1011.99
1021.27 1021.04 1020.90 1020.59 1019.89 1019.39 1018.48 1016.93 1017.01 1017.04 1016.49 1015.77 1015.48 1015.07 1014.98 1015.44 1015.66 1015.80 1015.86 1015.78 1015.87 1016.01 1015.73 1016.06 1015.57 1013.93 1012.95 1013.16 1012.86 1012.85 1012.69 1012.31 1012.09 1013.52 1013.85 1012.69 1011.98 1010.63 1009.65 1009.57 1008.47 1008.12 1008.57 1009.60 1010.56
1020.91 1020.81 1020.61 1020.39 1019.97 1019.41 1019.06 1018.58 1018.93 1019.40 1017.22 1015.71 1015.53 1015.29 1015.05 1015.20 1015.57 1015.72 1015.89 1015.65 1015.55 1015.22 1015.60 1015.99 1014.40 1012.70 1013.33 1013.52 1013.54 1013.44 1013.04 1012.31 1012.64 1013.61 1014.04 1012.69 1011.37 1010.14 1009.49 1008.19 1007.55 1007.00 1006.70 1008.04 1009.71
1020.52 1020.40 1020.21 1020.05 1019.75 1019.40 1019.44 1019.49 1019.72 1019.31 1018.20 1015.81 1015.21 1015.03 1015.10 1015.16 1015.06 1015.09 1015.54 1015.26 1014.93 1015.09 1014.86 1014.44 1013.00 1013.73 1013.73 1013.97 1013.78 1013.55 1013.15 1012.72 1013.38 1013.76 1013.75 1012.95 1010.02 1009.18 1008.01 1007.71 1006.65 1005.95 1006.25 1007.26 1008.55
1020.15 1020.16 1019.98 1019.54 1019.81 1019.99 1019.79 1019.99 1019.84 1019.69 1017.68 1015.63 1015.19 1014.88 1015.18 1015.09 1015.32 1015.42 1015.45 1015.42 1015.25 1014.69 1014.96 1014.45 1013.60 1013.80 1014.22 1013.89 1014.01 1013.92 1013.36 1013.68 1014.04 1014.38 1013.21 1013.22 1007.27 1007.67 1006.98 1006.68 1006.33 1004.81 1005.60 1006.57 1007.73
1019.60 1019.80 1019.91 1019.57 1019.83 1019.86 1020.40 1020.31 1019.96 1019.32 1016.67 1014.91 1014.98 1015.50 1015.20 1015.17 1015.46 1015.70 1015.85 1015.38 1014.67 1014.69 1014.92 1013.25 1013.82 1014.25 1014.21 1013.74 1013.96 1014.00 1014.28 1014.42 1014.53 1014.25 1013.92 1012.43 1010.78 1005.89 1006.38 1005.85 1004.95 1003.91 1004.33 1005.37 1006.54
1019.50 1019.27 1019.69 1020.07 1019.88 1019.88 1020.10 1020.13 1019.83 1018.59 1015.02 1014.31 1014.56 1014.87 1015.11 1015.09 1015.21 1015.56 1015.60 1015.54 1015.35 1014.85 1014.62 1013.67 1014.18 1014.22 1013.85 1014.55 1014.76 1015.04 1014.94 1014.99 1014.94 1014.34 1012.13 1010.10 1009.27 1004.32 1004.72 1004.49 1004.10 1003.45 1004.00 1004.97 1006.30
1018.88 1019.34 1019.47 1019.28 1019.52 1019.69 1019.97 1019.59 1018.96 1016.09 1014.33 1013.35 1013.35 1014.03 1014.02 1014.26 1014.61 1014.77 1014.80 1014.69 1014.15 1014.38 1013.64 1013.24 1013.51 1013.74 1014.05 1014.64 1015.41 1015.21 1014.82 1014.11 1013.38 1013.03 1009.20 1008.99 1008.03 1003.46 1004.18 1003.71 1003.68 1003.09 1003.82 1005.11 1006.32
1017.77 1018.77 1019.00 1018.91 1019.41 1019.49 1019.53 1019.09 1015.73 1011.85 1012.01 1011.86 1012.26 1012.89 1012.80 1012.66 1012.99 1013.52 1013.66 1013.21 1013.02 1012.63 1012.14 1012.15 1012.32 1012.96 1012.96 1012.78 1013.06 1014.09 1013.96 1013.48 1011.84 1010.94 1008.13 1008.69 1004.74 1002.12 1003.18 1003.08 1003.15 1003.87 1004.63 1005.50 1006.15
1017.22 1017.72 1018.10 1018.40 1018.96 1019.17 1019.19 1016.81 1010.46 1010.83 1010.82 1011.38 1012.18 1011.95 1011.65 1011.70 1012.14 1012.64 1012.21 1010.86 1010.46 1010.90 1010.57 1010.57 1010.51 1012.14 1013.01 1013.03 1013.17 1014.08 1013.74 1012.43 1011.86 1011.74 1009.66 1004.83 1001.56 1001.88 1002.66 1003.02 1003.47 1003.69 1004.04 1004.50 1005.49
1015.97 1016.46 1016.40 1017.14 1018.17 1018.50 1018.42 1012.38 1009.65 1009.65 1010.14 1010.08 1009.92 1009.63 1009.24 1009.87 1011.11 1011.39 1010.45 1008.98 1009.52 1009.61 1009.26 1009.34 1010.46 1011.93 1013.32 1013.57 1013.65 1013.43 1012.80 1012.80 1012.27 1010.86 1008.31 1002.22 1000.49 1000.41 1001.59 1001.41 1002.58 1003.18 1003.45 1003.44 1004.61
1014.61 1014.63 1014.41 1016.22 1017.31 1017.68 1015.47 1011.71 1010.10 1009.98 1009.82 1009.59 1008.70 1008.41 1008.20 1008.61 1009.07 1008.99 1007.59 1007.82 1008.57 1008.95 1009.69 1009.72 1010.34 1011.67 1012.94 1012.49 1011.48 1012.96 1012.23 1012.00 1011.36 1009.57 1007.62 1004.62 998.34 999.12 999.36 1000.11 1001.47 1001.94 1002.31 1002.99 1003.91
1013.95 1014.44 1014.31 1015.14 1016.89 1015.33 1013.83 1011.85 1010.87 1010.33 1010.53 1009.39 1008.91 1008.18 1007.77 1007.84 1007.96 1007.96 1006.91 1007.02 1007.19 1008.15 1009.42 1009.59 1009.76 1010.25 1009.69 1010.41 1010.67 1010.47 1009.75 1009.55 1009.32 1008.09 1006.86 1004.89 999.29 997.42 999.26 999.95 1001.11 1001.74 1002.06 1002.60 1003.23
1013.11 1013.80 1014.48 1013.31 1013.33 1013.61 1012.89 1011.97 1011.50 1010.10 1010.24 1009.30 1008.63 1008.18 1007.66 1007.47 1007.59 1006.98 1006.47 1006.26 1007.45 1007.80 1007.95 1008.87 1009.51 1010.25 1009.41 1010.42 1010.71 1010.13 1009.37 1008.70 1007.77 1006.76 1004.04 1004.64 998.60 998.65 998.43 999.95 1000.86 1001.33 1001.79 1002.35 1002.51
1012.96 1013.29 1014.38 1013.77 1012.76 1012.43 1011.80 1010.95 1010.58 1009.92 1009.49 1009.30 1009.53 1008.93 1008.60 1007.83 1007.56 1006.74 1006.49 1007.18 1007.81 1008.18 1008.14 1008.19 1008.38 1008.21 1007.67 1006.60 1007.71 1008.31 1008.33 1007.67 1007.10 1005.46 1003.19 1002.07 1000.43 997.77 997.13 999.71 999.42 999.95 1001.00 1001.36 1001.43
1011.72 1011.39 1011.25 1012.59 1012.83 1012.08 1011.51 1010.29 1010.03 1010.22 1009.67 1008.88 1008.37 1008.88 1008.75 1008.26 1007.65 1007.52 1007.09 1007.21 1008.20 1008.72 1008.86 1008.66 1008.69 1008.68 1007.85 1007.35 1007.33 1007.15 1007.26 1006.69 1005.33 1004.77 1003.08 1000.15 1000.79 998.32 997.10 998.06 998.14 998.63 998.96 999.23 999.79
1011.45 1010.85 1011.30 1010.63 1011.23 1010.66 1010.46 1009.12 1008.76 1008.11 1008.53 1007.62 1007.50 1007.25 1007.50 1007.88 1008.28 1006.61 1006.79 1006.93 1007.77 1009.00 1008.82 1008.96 1007.81 1008.67 1007.79 1007.45 1007.06 1006.74 1006.95 1004.20 1004.22 1002.58 1001.93 1001.66 1000.65 997.97 997.42 997.23 997.91 996.37 998.15 997.90 998.23
1011.43 1009.99 1009.84 1008.65 1009.29 1009.63 1008.92 1008.02 1007.40 1007.63 1006.79 1006.08 1005.60 1006.10 1006.42 1005.79 1006.06 1005.64 1005.93 1006.52 1007.25 1008.49 1008.49 1008.59 1008.12 1007.77 1006.29 1006.12 1006.08 1005.78 1003.57 1003.30 1001.26 1000.73 1000.30 999.65 998.08 997.02 996.74 996.55 995.80 994.87 996.73 996.65 996.65
Wind_Speed
18 18 18 19 19 19 18 18 17 13 11 12 11 9 7 7 4 4 4 2 2 1 1 2 2 4 2 3 1 1 4 4 3 5 2 6 9 5 1 5 5 8 4 3 13
18 18 18 18 18 18 18 18 18 16 12 10 12 9 7 7 3 6 4 3 0 1 3 5 4 6 3 2 1 4 3 2 0 2 3 5 9 5 6 8 8 8 10 5 18
17 18 18 18 18 17 18 17 16 17 16 12 10 9 7 3 3 3 5 2 1 3 0 1 3 3 3 1 1 1 3 1 2 5 4 4 5 5 7 12 14 15 13 15 20
16 17 18 18 18 18 17 16 16 16 16 15 11 8 7 3 5 4 2 3 6 7 5 3 2 3 3 4 2 4 4 3 1 2 4 5 3 5 14 17 2 6 6 18 22
15 17 18 18 19 19 19 17 15 15 15 15 10 6 2 3 7 4 2 2 5 3 2 2 2 3 3 4 2 5 3 4 4 4 6 2 11 9 15 17 10 4 8 16 18
15 16 18 18 20 21 21 20 16 15 15 14 9 3 3 7 3 3 4 4 2 3 3 2 3 2 2 3 5 2 4 7 5 5 6 6 5 3 3 2 9 11 14 15 20
10 14 16 18 19 21 22 22 19 14 15 11 4 3 3 9 2 4 4 3 2 1 4 2 3 2 5 2 1 1 7 7 9 4 5 4 9 13 15 6 9 13 13 15 18
9 11 14 16 18 20 21 23 22 19 10 3 4 3 7 2 3 4 5 4 4 5 4 3 3 5 1 3 2 3 3 5 5 7 3 4 16 9 3 8 13 14 14 15 20
11 12 14 16 18 20 22 26 20 8 2 3 3 3 6 3 3 3 1 5 5 3 5 3 2 2 4 4 5 5 10 9 5 8 4 11 16 3 5 8 16 18 16 15 17
12 14 14 16 18 20 25 24 6 4 2 2 1 3 4 3 3 3 2 6 3 5 3 2 2 4 4 7 12 11 8 8 11 5 8 11 21 22 21 16 25 25 18 17 18
11 13 13 16 17 19 15 5 3 3 2 5 2 3 1 3 1 2 2 6 4 3 7 2 7 17 17 17 14 7 8 16 14 4 5 16 20 25 23 20 26 25 21 17 20
10 11 14 15 18 19 4 3 3 3 8 4 6 7 3 2 2 6 6 9 8 11 7 4 16 17 1 6 9 8 13 20 12 2 7 14 21 24 24 27 25 25 23 16 16
10 9 10 12 15 4 4 2 2 3 5 6 5 5 2 8 7 6 13 4 7 9 14 16 10 2 8 8 11 11 18 14 10 5 7 12 18 8 8 12 15 22 19 14 16
11 10 8 10 2 4 1 2 1 3 7 6 5 3 3 3 4 2 2 2 4 10 9 10 3 8 7 11 12 13 9 11 7 5 12 4 22 10 9 11 13 22 12 12 15
12 9 6 3 5 2 2 3 1 3 12 1 3 2 1 4 4 1 1 2 8 9 8 6 8 9 10 9 12 5 2 4 3 8 6 11 14 9 2 7 19 21 11 15 14
13 12 8 2 2 0 1 1 3 4 13 3 3 5 4 3 2 3 3 1 2 4 5 7 1 5 4 4 0 9 3 2 2 3 11 17 16 5 5 7 9 12 10 9 12
15 11 8 5 2 5 3 3 6 12 3 8 8 6 4 7 6 8 8 10 10 7 11 5 9 3 4 5 3 5 5 7 7 6 13 4 10 19 14 13 14 18 7 7 8
17 14 8 3 6 6 2 4 18 9 17 3 5 5 11 13 8 10 7 9 13 5 2 7 15 15 13 16 7 12 8 7 13 13 21 7 14 13 10 15 17 7 5 4 7
14 7 5 9 9 4 3 12 16 11 9 9 3 6 9 5 4 8 14 10 11 22 16 9 16 3 1 2 5 9 10 2 4 3 9 11 22 8 6 11 9 15 12 14 11
7 6 8 15 13 6 6 26 15 10 8 6 20 16 17 15 10 12 12 7 9 15 17 4 10 4 3 2 1 4 5 5 3 7 17 25 31 18 11 16 10 12 16 16 10
7 5 8 17 6 6 13 17 10 7 6 13 20 17 15 15 15 12 16 5 9 8 11 4 7 3 6 13 16 7 7 5 3 6 9 19 21 3 5 3 12 14 15 12 12
3 6 10 16 8 4 13 11 2 6 6 10 5 13 23 16 14 14 17 16 14 12 13 9 3 11 21 3 2 8 15 18 10 11 11 13 34 6 5 5 4 6 6 8 9
4 1 3 8 11 12 12 14 7 12 12 9 14 12 10 14 11 15 17 7 12 14 13 11 5 7 12 6 2 9 9 11 17 15 31 13 30 12 20 6 5 8 9 7 11
3 5 2 3 5 19 19 20 16 9 14 6 4 4 0 8 11 11 14 3 2 4 4 8 6 13 20 21 3 6 13 19 24 19 20 26 29 39 34 21 22 17 11 15 15
5 4 7 8 11 15 16 7 21 15 12 8 5 21 21 19 20 20 28 20 4 3 1 6 11 12 19 23 22 24 18 20 27 28 29 29 25 34 34 26 26 21 17 19 19
6 3 6 3 19 25 23 19 28 25 19 14 18 22 20 24 23 22 21 19 15 4 7 5 18 19 27 30 32 35 23 36 32 36 30 25 29 35 37 32 30 34 24 27 25
5 4 4 11 12 14 22 26 25 26 22 26 27 18 20 26 31 32 25 18 8 15 15 10 8 10 22 25 23 15 34 35 42 38 32 32 34 36 34 30 32 32 22 24 27
Wind_Direction
17 15 12 10 6 2 1 356 354 0 355 347 345 333 327 330 310 177 231 140 167 6 175 142 133 140 161 106 53 236 234 242 225 196 139 158 206 162 135 205 210 199 244 81 155
11 9 8 6 3 359 355 351 344 344 348 348 338 330 328 339 241 240 124 128 218 220 209 196 163 162 146 106 98 245 256 249 230 191 238 197 225 192 206 200 223 224 210 159 162
8 5 1 1 358 355 351 346 339 334 334 340 336 324 318 307 266 210 134 99 127 188 71 57 120 192 164 181 135 174 269 171 227 233 223 228 229 201 234 237 235 222 211 183 180
3 360 357 354 352 349 348 342 335 329 325 329 332 323 315 217 242 155 136 125 133 146 157 159 169 173 182 206 156 241 242 236 268 188 191 222 148 221 226 248 13 275 207 182 189
355 352 351 348 346 343 340 337 330 322 317 320 322 319 263 226 252 139 125 139 132 147 126 172 192 167 217 189 199 229 207 224 252 252 241 204 240 254 245 247 238 241 192 197 201
349 346 343 342 339 338 333 329 325 318 308 312 305 291 194 243 92 95 141 93 79 154 137 179 176 179 144 206 228 168 257 262 267 250 239 239 245 224 239 184 219 223 223 213 210
350 341 338 335 335 332 327 322 320 315 305 302 269 239 223 262 87 77 94 59 15 211 141 106 123 201 148 204 79 335 290 274 222 221 236 214 254 234 251 194 233 224 225 220 217
337 336 332 331 329 326 323 317 317 313 300 273 174 203 253 54 124 113 135 87 60 39 72 89 101 95 290 123 148 239 247 255 154 175 159 216 277 253 272 226 244 236 225 216 217
332 330 328 331 329 324 320 312 312 308 269 168 185 212 260 136 184 120 186 135 101 65 70 96 62 91 167 225 251 210 272 230 269 209 154 215 281 253 201 234 263 258 244 226 219
319 324 326 330 328 325 322 305 278 283 176 214 101 231 164 210 135 126 80 139 122 128 135 179 141 230 204 205 256 262 243 249 261 180 215 231 258 278 272 252 264 271 258 238 219
306 318 326 324 325 327 337 338 272 199 207 224 188 271 178 100 144 168 150 133 127 195 217 99 230 238 244 229 269 269 258 260 266 190 244 254 261 269 281 274 263 270 262 244 232
291 307 320 321 320 324 299 305 38 8 296 238 250 274 208 189 253 193 176 186 180 221 144 177 238 251 31 216 228 233 260 264 280 233 221 274 272 272 266 267 269 272 269 249 238
260 279 305 312 316 324 341 57 325 297 252 280 221 239 205 173 224 203 183 160 201 201 204 229 258 78 197 205 205 226 235 254 266 325 231 292 270 235 255 264 269 260 260 251 226
240 257 279 324 268 345 329 359 311 317 258 234 223 207 130 174 243 70 219 213 201 241 193 241 248 208 197 229 204 238 229 244 263 293 280 1 290 279 249 242 263 271 241 223 214
226 238 256 102 313 247 351 320 288 224 275 39 166 47 107 210 92 137 30 159 216 181 176 221 179 190 206 229 177 249 102 169 205 254 316 248 268 276 163 242 257 261 257 222 207
238 209 156 125 167 72 127 186 241 212 240 239 156 184 166 199 166 121 150 25 23 174 245 263 105 219 212 83 85 135 115 135 146 259 249 252 226 270 216 209 248 265 228 203 195
228 207 172 163 204 135 159 212 229 233 44 194 199 191 210 184 197 188 170 180 189 179 213 191 218 168 177 133 119 196 179 277 253 222 263 144 234 263 282 239 233 253 251 183 176
211 177 206 193 139 138 151 179 239 190 208 97 160 156 199 167 213 186 176 218 228 214 210 236 252 183 181 219 204 184 217 202 260 278 288 112 248 275 227 252 247 271 264 206 215
197 193 186 182 158 125 208 216 234 227 182 177 105 207 212 224 212 184 215 230 206 192 209 204 255 98 263 102 183 159 199 238 286 111 280 248 257 232 187 256 249 251 242 240 229
197 194 208 156 163 132 198 241 231 204 151 182 219 196 228 212 190 193 194 193 230 199 227 252 258 120 121 156 57 233 135 138 198 259 258 275 282 275 234 242 213 237 237 238 221
213 199 149 152 171 166 215 236 248 240 197 199 233 243 237 237 215 217 240 207 196 198 205 202 217 181 153 204 190 168 202 226 313 227 255 269 266 81 196 221 206 220 231 239 224
228 227 159 146 186 201 226 233 215 248 242 255 243 254 246 227 236 238 244 228 175 160 171 208 203 231 237 129 323 258 231 212 223 220 235 263 273 111 46 141 191 242 253 239 228
214 198 198 185 191 209 219 238 258 232 230 212 230 221 211 237 235 235 245 191 176 175 171 168 204 239 251 206 176 213 202 232 242 260 248 231 254 250 268 292 231 241 244 249 228
236 187 162 233 271 222 217 225 229 209 237 216 282 29 149 238 234 256 250 203 184 196 16 176 171 214 238 252 92 192 226 221 223 233 254 241 263 276 274 273 276 266 230 234 239
210 212 174 176 239 235 230 228 235 240 228 200 219 223 233 247 252 258 259 249 175 157 148 176 231 237 253 269 280 280 275 256 235 243 243 259 259 262 275 275 270 271 270 270 264
267 159 172 212 223 215 217 217 228 238 226 224 222 230 230 240 239 260 243 248 237 194 217 196 245 247 253 261 264 259 262 262 266 259 253 255 262 262 268 279 282 274 268 271 269
330 285 239 178 191 205 222 227 232 238 242 234 231 231 232 225 225 241 251 257 197 229 225 208 216 206 238 227 246 250 237 247 255 261 256 253 253 268 267 264 260 271 273 264 265